Weather History for KFNB - January, 2012

Change the Weather History Date:

Tuesday, January 17, 2012

  Actual Average (WUND) Record (WUND)
Temperature  
Mean Temperature 16 °F -  
Max Temperature 25 °F - - (-1)
Min Temperature 6 °F - - (-1)
Degree Days  
Heating Degree Days 49    
Moisture  
Dew Point 12 °F    
Average Humidity 77    
Maximum Humidity 93    
Minimum Humidity 62    
Precipitation  
Precipitation 0.00 in - - ()
Sea Level Pressure  
Sea Level Pressure 30.17 in    
Wind  
Wind Speed 14 mph (NW)    
Max Wind Speed 22 mph    
Max Gust Speed 30 mph    
Visibility 8 miles    
Events Snow    
Averages and records for this station are not official NWS values.
T = Trace of Precipitation, MM = Missing Value Source: NWS Daily Summary

Daily Weather History Graph

Daily Weather History Graph

Search for Another Location

Airport or City:

Trip Planner

Search our weather history database for the weather conditions in past years. The results will help you decide how hot, cold, wet, or windy it might be!

Date:

Astronomy

Jan. 17, 2012 Rise Set
Actual Time 7:41 AM CST 5:23 PM CST
Civil Twilight 7:12 AM CST 5:52 PM CST
Nautical Twilight 6:38 AM CST 6:26 PM CST
Astronomical Twilight 6:06 AM CST 6:58 PM CST
Moon 2:02 AM CST (1/17) 12:17 PM CST (1/17)
Length of Visible Light 10h 40m
Length of Day
9h 41m
Waning Crescent, 35% of the Moon is Illuminated
Jan 17
Waning Crescent
Jan 23
New
Jan 30
First Quarter
Feb 7
Full
Feb 14
Last Quarter

Hourly Weather History & Observations

Time (CST) Temp. Windchill Dew Point Humidity Pressure Visibility Wind Dir Wind Speed Gust Speed Precip Events Conditions
12:53 AM 25.0 °F 14.2 °F 18.0 °F 75% 29.91 in 10.0 mi NNW 11.5 mph 20.7 mph 0.00 in Snow Light Snow
1:14 AM 24.8 °F 12.9 °F 19.4 °F 80% 29.89 in 1.8 mi NNW 13.8 mph 21.9 mph 0.00 in Snow Light Snow
1:19 AM 23.0 °F 8.7 °F 19.4 °F 86% 29.89 in 1.2 mi NW 18.4 mph 24.2 mph 0.00 in Snow Light Snow
1:35 AM 21.2 °F 8.3 °F 19.4 °F 93% 29.92 in 2.0 mi NW 13.8 mph 24.2 mph 0.00 in Snow Light Snow
1:45 AM 21.2 °F 6.8 °F 17.6 °F 86% 29.91 in 4.0 mi NW 17.3 mph 24.2 mph 0.00 in Snow Light Snow
1:53 AM 21.0 °F 6.6 °F 17.1 °F 85% 29.95 in 6.0 mi NNW 17.3 mph - 0.00 in Snow Light Snow
2:08 AM 21.2 °F 5.2 °F 15.8 °F 80% 29.95 in 1.8 mi NW 21.9 mph 28.8 mph 0.00 in Snow Light Snow
2:28 AM 19.4 °F 5.0 °F 15.8 °F 86% 29.97 in 2.5 mi NNW 16.1 mph 26.5 mph 0.00 in Snow Light Snow
2:45 AM 19.4 °F 5.5 °F 15.8 °F 86% 29.97 in 1.5 mi NW 15.0 mph 23.0 mph 0.00 in Snow Light Snow
2:53 AM 19.9 °F 5.7 °F 16.0 °F 85% 30.00 in 2.5 mi NW 16.1 mph 21.9 mph 0.00 in Snow Light Snow
3:01 AM 19.4 °F 6.0 °F 15.8 °F 86% 29.97 in 4.0 mi NW 13.8 mph - 0.00 in Snow Light Snow
3:12 AM 19.4 °F 3.6 °F 15.8 °F 86% 29.97 in 5.0 mi NNW 19.6 mph 27.6 mph 0.00 in Snow Light Snow
3:53 AM 19.9 °F 6.7 °F 14.0 °F 78% 30.03 in 10.0 mi NNW 13.8 mph 21.9 mph 0.00 in   Overcast
4:39 AM 19.4 °F 7.2 °F 14.0 °F 80% 30.04 in 9.0 mi NW 11.5 mph - 0.00 in   Overcast
4:53 AM 19.0 °F 5.6 °F 14.0 °F 81% 30.08 in 10.0 mi NW 13.8 mph 20.7 mph 0.00 in   Overcast
5:33 AM 19.4 °F 3.2 °F 12.2 °F 74% 30.05 in 10.0 mi NW 20.7 mph 27.6 mph N/A   Overcast
5:53 AM 19.0 °F 5.6 °F 12.0 °F 74% 30.10 in 10.0 mi NW 13.8 mph 24.2 mph N/A   Overcast
6:53 AM 19.0 °F 5.0 °F 12.0 °F 74% 30.17 in 10.0 mi NW 15.0 mph 27.6 mph N/A   Overcast
7:40 AM 17.6 °F 3.2 °F 10.4 °F 73% 30.18 in 10.0 mi NW 15.0 mph 26.5 mph N/A   Scattered Clouds
7:53 AM 16.0 °F 1.7 °F 9.0 °F 74% 30.23 in 10.0 mi NW 13.8 mph 28.8 mph N/A   Clear
8:53 AM 17.1 °F 0.6 °F 9.0 °F 71% 30.28 in 10.0 mi NW 19.6 mph 28.8 mph N/A   Mostly Cloudy
9:53 AM 18.0 °F 3.6 °F 10.0 °F 71% 30.33 in 10.0 mi NW 15.0 mph 25.3 mph N/A   Clear
10:53 AM 18.0 °F 2.6 °F 9.0 °F 68% 30.35 in 10.0 mi NW 17.3 mph 29.9 mph N/A   Clear
11:53 AM 19.0 °F 4.5 °F 10.0 °F 68% 30.35 in 10.0 mi NNW 16.1 mph 27.6 mph N/A   Clear
12:53 PM 19.9 °F 5.7 °F 10.0 °F 65% 30.35 in 10.0 mi NW 16.1 mph 24.2 mph N/A   Clear
1:53 PM 21.0 °F 7.1 °F 10.0 °F 63% 30.36 in 10.0 mi NNW 16.1 mph 21.9 mph N/A   Clear
2:53 PM 21.0 °F 8.6 °F 10.0 °F 63% 30.37 in 10.0 mi NW 12.7 mph 20.7 mph N/A   Clear
3:53 PM 21.0 °F 8.1 °F 10.0 °F 63% 30.40 in 10.0 mi NW 13.8 mph - N/A   Clear
4:53 PM 19.9 °F 11.1 °F 9.0 °F 62% 30.41 in 10.0 mi NNW 6.9 mph - N/A   Clear
5:53 PM 14.0 °F 3.9 °F 6.8 °F 73% 30.37 in 10.0 mi WNW 6.9 mph - N/A   Clear
6:53 PM 16.0 °F 8.8 °F 7.0 °F 68% 30.42 in 10.0 mi West 4.6 mph - N/A   Clear
7:53 PM 16.0 °F 10.4 °F 7.0 °F 68% 30.41 in 10.0 mi SSW 3.5 mph - N/A   Clear
8:53 PM 12.0 °F 4.1 °F 7.0 °F 80% 30.41 in 10.0 mi SSW 4.6 mph - N/A   Clear
9:53 PM 8.1 °F 1.4 °F 3.9 °F 83% 30.41 in 10.0 mi South 3.5 mph - N/A   Clear
10:53 PM 7.0 °F - 3.0 °F 84% 30.41 in 10.0 mi Calm Calm - N/A   Clear
11:53 PM 6.1 °F - 1.9 °F 83% 30.40 in 10.0 mi Calm Calm - N/A   Clear